Weather Service Report


332 
ASUS44 KBMX 310910
RWRAL 
             
ALABAMA REGIONAL WEATHER ROUNDUP
NATIONAL WEATHER SERVICE BIRMINGHAM AL
400 AM CDT FRI JUL 31 2015

NOTE: "FAIR" INDICATES FEW OR NO CLOUDS BELOW 12,000 FEET
WITH NO SIGNIFICANT WEATHER AND/OR OBSTRUCTIONS TO VISIBILITY.

THE REMARK "TC" DENOTES TEMPERATURE IN DEGREES CELSIUS.

ALZ001>011-014-016>018-020-311000-
NORTH ALABAMA
  
CITY           SKY/WX    TMP DP  RH WIND       PRES   REMARKS
MUSCLE SHOALS  CLEAR     73  59  61 VRB3      30.05R                  
HUNTSVILLE     CLEAR     71  61  70 N7        30.03R                  
DECATUR        CLEAR     63  62  97 CALM      30.04R                  
HALEYVILLE     FAIR      69  62  78 N5        30.06R                  
GADSDEN        CLEAR     72  59  64 N7        29.98F                  
$$
 
ALZ012-013-022-023-030>036-040>044-311000-
WEST CENTRAL ALABAMA
  
CITY           SKY/WX    TMP DP  RH WIND       PRES   REMARKS
TUSCALOOSA     CLEAR     74  63  68 N6        29.97S                  
$$
 
ALZ015-024>027-033>036-040>044-311000-
CENTRAL ALABAMA
  
CITY           SKY/WX    TMP DP  RH WIND       PRES   REMARKS
BIRMINGHAM     CLEAR     70  64  81 N6        30.01R                  
MONTGOMERY     CLEAR     78  68  71 N6        29.92S                  
SHELBY CO ARPT CLEAR     75  63  66 VRB3      29.97S                  
MAXWELL AFB    CLEAR     77  69  77 N6        29.92R                  
GREENVILLE     FAIR      77  71  82 N6        29.91S                  
$$
 
ALZ019-021-028-029-037-038-045>048-311000-
EAST CENTRAL ALABAMA
  
CITY           SKY/WX    TMP DP  RH WIND       PRES   REMARKS
ANNISTON       CLEAR     75  64  68 NE7       29.97S                  
ALEXANDER CITY CLEAR     74  64  69 N3        29.96S                  
AUBURN         CLEAR     75  72  88 N8        29.95F                  
$$
 
ALZ051>064-311000-
SOUTHWEST ALABAMA
  
CITY           SKY/WX    TMP DP  RH WIND       PRES   REMARKS
MOBILE         MOCLDY    75  74  96 N8        29.91F                  
BROOKLEY FIELD MOCLDY    77  73  87 N8        29.90F                  
EVERGREEN      MOCLDY    76  74  93 N3        29.91S                  
$$

ALZ049-050-065>069-311000-
SOUTHEAST ALABAMA
  
CITY           SKY/WX    TMP DP  RH WIND       PRES   REMARKS
DOTHAN         MOCLDY    76  74  93 CALM      29.93F                  
OZARK          MOCLDY    76  76 100 NW2       29.89F                  
TROY           PTCLDY    75  73  93 CALM      29.92S                  
EUFAULA        FAIR      77  76  96 CALM      29.91S FOG              
$$

Return to Home page


Western Regional Climate Center, wrcc@dri.edu